{"data":{"norad_id":68477,"intl_designator":"2026-067BP","name":"TRANSPORTER-16 OBJECT BP","alt_names":[],"object_type":"PAYLOAD","status":"ACTIVE","operator":null,"country":"TBD","launch_date":"2026-03-30","launch_site_code":"AFWTR","launch_vehicle":null,"mission":null,"orbit_class":"UNKNOWN","rcs_meters":null,"size_class":null,"mass_kg":null,"dimensions":null,"purposes":[],"wikipedia_slug":null,"has_3d_model":false,"image_url":null,"decayed_at":null,"tle_current":{"epoch":"2026-05-25T03:04:06.462048Z","epoch_age_seconds":60438,"freshness":"FRESH","line1":"1 68477U 26067BP  26145.12785257  .00006714  00000+0  67474-3 0  9996","line2":"2 68477  97.7508 103.6524 0005843 126.1001 234.0760 14.91561092  7694","mean_motion":14.91561092,"eccentricity":0.0005843,"inclination_deg":97.7508,"raan_deg":103.6524,"arg_perigee_deg":126.1001,"mean_anomaly_deg":234.076,"bstar":0.00067474,"rev_number":769,"period_min":96.543145817054,"perigee_km":588.99402736049,"apogee_km":597.14057670785,"semimajor_km":6971.2043020342,"source":"CELESTRAK","updated_at":"2026-05-25T13:38:07.850671Z"}}}